This is the latest recevied weather packets stored in our database for station/object EA6AMR-10. If no packets are shown the sender has not sent any weather packets the latest 10 day(s).
| Time | Temp. | Humidity | Pressure | Rain* | Wind** | Luminosity | Snow |
|---|---|---|---|---|---|---|---|
| 1777502670 | 18.33° C | 47% | 1013.7 hPa | - | - | - | - |
| 1777501770 | 18.89° C | 47% | 1013.7 hPa | - | - | - | - |
| 1777500870 | 18.89° C | 47% | 1013.7 hPa | - | - | - | - |
| 1777499969 | 18.33° C | 47% | 1013.7 hPa | - | - | - | - |
| 1777499069 | 18.89° C | 47% | 1013.8 hPa | - | - | - | - |
| 1777498169 | 18.89° C | 47% | 1013.7 hPa | - | - | - | - |
| 1777497269 | 18.89° C | 47% | 1013.5 hPa | - | - | - | - |
| 1777496368 | 19.44° C | 47% | 1013.3 hPa | - | - | - | - |
| 1777495760 | 19.44° C | 48% | 1013.2 hPa | - | - | - | - |
| 1777495703 | 19.44° C | 48% | 1013.2 hPa | - | - | - | - |
| 1777495593 | 19.44° C | 48% | 1013.2 hPa | - | - | - | - |
| 1777495468 | 19.44° C | 48% | 1013.2 hPa | - | - | - | - |
| 1777494572 | 19.44° C | 47% | 1012.8 hPa | - | - | - | - |
| 1777493671 | 19.44° C | 47% | 1012.8 hPa | - | - | - | - |
| 1777492771 | 20° C | 47% | 1012.7 hPa | - | - | - | - |
| 1777491871 | 20° C | 47% | 1012.5 hPa | - | - | - | - |
| 1777490971 | 20.56° C | 47% | 1012.1 hPa | - | - | - | - |
| 1777490071 | 20.56° C | 47% | 1011.7 hPa | - | - | - | - |
| 1777489170 | 21.11° C | 47% | 1011.5 hPa | - | - | - | - |
| 1777488270 | 21.11° C | 47% | 1011.5 hPa | - | - | - | - |
| 1777487370 | 21.67° C | 47% | 1011.3 hPa | - | - | - | - |
| 1777486470 | 22.22° C | 47% | 1011.2 hPa | - | - | - | - |
| 1777485569 | 23.33° C | 47% | 1011.2 hPa | - | - | - | - |
| 1777484669 | 23.89° C | 47% | 1011.1 hPa | - | - | - | - |
| 1777483769 | 25° C | 46% | 1011 hPa | - | - | - | - |
* Rain since midnight (hover to see other rain measurements)
** Current wind speed in m/s (hover to see current wind gust speed)